Location: Mascot Post Office (historical)
(40.2645°N, 99.5462°W)
Time: 00:28:00
(UTC+00:00)

NOSS 3-4 (C) - Pass Details

Date: 28 October 2020
Orbit: 884 x 1328 km, 63.4° (Epoch: 28 November)

Event Time Altitude Azimuth Distance (km) Brightness Sun altitude
Rises 02:33:50 0° 327° (NNW) 3,844 7.2 -33.5°
Reaches altitude 10° 02:36:24 10° 330° (NNW) 2,948 6.4 -34.0°
Enters shadow 02:41:32 50° 351° (N) 1,437 4.3 -34.9°
